| time (UTC) | temp C | wind direction | speed KPH | gust KPH | rain 1hr cm | rain 24hr cm | rain mn cm | humidity % | barometer mb |
| 20260506132359 | 26 | 121 | 3.2 | 22.5 | 0.00 | 0.00 | 0.00 | 40 | 1008.9 |
| 20260506132259 | 26 | 118 | 4.8 | 25.7 | 0.00 | 0.00 | 0.00 | 40 | 1008.9 |
| 20260506131908 | 26 | 103 | 4.8 | 25.7 | 0.00 | 0.00 | 0.00 | 40 | 1009.0 |
| 20260506131706 | 26 | 351 | 4.8 | 25.7 | 0.00 | 0.00 | 0.00 | 40 | 1009.0 |
| 20260506131539 | 26 | 86 | 4.8 | 25.7 | 0.00 | 0.00 | 0.00 | 41 | 1009.0 |
| 20260506131523 | 26 | 5 | 4.8 | 25.7 | 0.00 | 0.00 | 0.00 | 41 | 1009.1 |
| 20260506131318 | 26 | 1 | 4.8 | 25.7 | 0.00 | 0.00 | 0.00 | 41 | 1009.0 |
| 20260506131221 | 26 | 6 | 6.4 | 19.3 | 0.00 | 0.00 | 0.00 | 42 | 1009.1 |
| 20260506131201 | 26 | 18 | 6.4 | 19.3 | 0.00 | 0.00 | 0.00 | 42 | 1009.1 |
| 20260506130706 | 26 | 69 | 6.4 | 20.9 | 0.00 | 0.00 | 0.00 | 40 | 1009.1 |
| 20260506130532 | 26 | 322 | 6.4 | 20.9 | 0.00 | 0.00 | 0.00 | 40 | 1009.1 |
| 20260506130511 | 26 | 20 | 6.4 | 20.9 | 0.00 | 0.00 | 0.00 | 40 | 1009.0 |
| 20260506130307 | 27 | 22 | 4.8 | 20.9 | 0.00 | 0.00 | 0.00 | 39 | 1009.1 |
| 20260506130150 | 27 | 56 | 3.2 | 20.9 | 0.00 | 0.00 | 0.00 | 40 | 1009.1 |
| 20260506130131 | 27 | 32 | 3.2 | 20.9 | 0.00 | 0.00 | 0.00 | 40 | 1009.1 |
| 20260506130052 | 27 | 10 | 3.2 | 20.9 | 0.00 | 0.00 | 0.00 | 40 | 1009.1 |
| 20260506125947 | 27 | 306 | 3.2 | 17.7 | 0.00 | 0.00 | 0.00 | 40 | 1009.2 |
| 20260506125644 | 27 | 1 | 1.6 | 12.9 | 0.00 | 0.00 | 0.00 | 40 | 1009.3 |
| 20260506125108 | 27 | 16 | 3.2 | 14.5 | 0.00 | 0.00 | 0.00 | 41 | 1009.3 |
| 20260506125029 | 27 | 64 | 3.2 | 14.5 | 0.00 | 0.00 | 0.00 | 41 | 1009.3 |
| 20260506124907 | 27 | 251 | 3.2 | 14.5 | 0.00 | 0.00 | 0.00 | 41 | 1009.3 |
| 20260506124724 | 27 | 344 | 1.6 | 14.5 | 0.00 | 0.00 | 0.00 | 41 | 1009.4 |
| 20260506124639 | 27 | 24 | 1.6 | 14.5 | 0.00 | 0.00 | 0.00 | 41 | 1009.4 |
| 20260506124623 | 27 | 49 | 1.6 | 14.5 | 0.00 | 0.00 | 0.00 | 41 | 1009.4 |
| 20260506124528 | 27 | 7 | 1.6 | 12.9 | 0.00 | 0.00 | 0.00 | 41 | 1009.4 |
| 20260506124206 | 27 | 274 | 1.6 | 12.9 | 0.00 | 0.00 | 0.00 | 41 | 1009.4 |
| 20260506124127 | 27 | 340 | 0.0 | 12.9 | 0.00 | 0.00 | 0.00 | 40 | 1009.4 |
| 20260506124031 | 27 | 351 | 0.0 | 9.7 | 0.00 | 0.00 | 0.00 | 40 | 1009.5 |
| 20260506123412 | 26 | 32 | 1.6 | 6.4 | 0.00 | 0.00 | 0.00 | 41 | 1009.5 |
| 20260506123029 | 26 | 38 | 1.6 | 12.9 | 0.00 | 0.00 | 0.00 | 41 | 1009.6 |
| 20260506122909 | 26 | 71 | 1.6 | 12.9 | 0.00 | 0.00 | 0.00 | 41 | 1009.6 |
| 20260506122705 | 26 | 80 | 1.6 | 12.9 | 0.00 | 0.00 | 0.00 | 41 | 1009.7 |
| 20260506122557 | 26 | 84 | 1.6 | 12.9 | 0.00 | 0.00 | 0.00 | 42 | 1009.7 |
| 20260506122538 | 26 | 17 | 1.6 | 12.9 | 0.00 | 0.00 | 0.00 | 42 | 1009.7 |
| 20260506122409 | 26 | 88 | 1.6 | 12.9 | 0.00 | 0.00 | 0.00 | 41 | 1009.7 |
| 20260506122030 | 26 | 337 | 1.6 | 17.7 | 0.00 | 0.00 | 0.00 | 41 | 1009.7 |
| 20260506121925 | 26 | 80 | 1.6 | 17.7 | 0.00 | 0.00 | 0.00 | 41 | 1010.0 |
| 20260506121824 | 26 | 47 | 1.6 | 17.7 | 0.00 | 0.00 | 0.00 | 41 | 1010.0 |
| 20260506121503 | 26 | 13 | 1.6 | 17.7 | 0.00 | 0.00 | 0.00 | 41 | 1009.8 |
| 20260506121302 | 27 | 10 | 1.6 | 17.7 | 0.00 | 0.00 | 0.00 | 41 | 1009.7 |
| 20260506121103 | 26 | 90 | 0.0 | 6.4 | 0.00 | 0.00 | 0.00 | 42 | 1009.7 |
| 20260506121030 | 26 | 98 | 0.0 | 6.4 | 0.00 | 0.00 | 0.00 | 42 | 1009.7 |
| 20260506120901 | 26 | 106 | 0.0 | 6.4 | 0.00 | 0.00 | 0.00 | 43 | 1009.8 |
| 20260506120751 | 26 | 26 | 0.0 | 6.4 | 0.00 | 0.00 | 0.00 | 44 | 1009.8 |
| 20260506120709 | 26 | 78 | 1.6 | 8.0 | 0.00 | 0.00 | 0.00 | 44 | 1009.8 |
| 20260506120650 | 26 | 11 | 0.0 | 8.0 | 0.00 | 0.00 | 0.00 | 44 | 1010.0 |
| 20260506120559 | 26 | 107 | 0.0 | 8.0 | 0.00 | 0.00 | 0.00 | 45 | 1009.8 |
| 20260506115858 | 26 | 171 | 0.0 | 8.0 | 0.00 | 0.00 | 0.00 | 45 | 1009.8 |
| 20260506115655 | 26 | 22 | 0.0 | 8.0 | 0.00 | 0.00 | 0.00 | 45 | 1010.0 |
| 20260506115530 | 26 | 26 | 0.0 | 8.0 | 0.00 | 0.00 | 0.00 | 46 | 1010.2 |
| 20260506115456 | 26 | 200 | 0.0 | 8.0 | 0.00 | 0.00 | 0.00 | 46 | 1010.0 |
| 20260506115253 | 26 | 125 | 0.0 | 8.0 | 0.00 | 0.00 | 0.00 | 46 | 1010.2 |
| 20260506115051 | 25 | 120 | 1.6 | 11.3 | 0.00 | 0.00 | 0.00 | 47 | 1010.2 |
| 20260506115030 | 25 | 49 | 1.6 | 12.9 | 0.00 | 0.00 | 0.00 | 46 | 1010.2 |
| 20260506114850 | 25 | 34 | 1.6 | 16.1 | 0.00 | 0.00 | 0.00 | 46 | 1010.3 |
| 20260506114652 | 25 | 319 | 1.6 | 16.1 | 0.00 | 0.00 | 0.00 | 46 | 1010.4 |
| 20260506114530 | 25 | 319 | 1.6 | 16.1 | 0.00 | 0.00 | 0.00 | 46 | 1010.4 |
| 20260506114452 | 25 | 318 | 1.6 | 16.1 | 0.00 | 0.00 | 0.00 | 46 | 1010.3 |
| 20260506114243 | 25 | 327 | 1.6 | 16.1 | 0.00 | 0.00 | 0.00 | 46 | 1010.4 |
| 20260506114044 | 26 | 296 | 1.6 | 16.1 | 0.00 | 0.00 | 0.00 | 45 | 1010.4 |
| 20260506114032 | 26 | 282 | 1.6 | 16.1 | 0.00 | 0.00 | 0.00 | 45 | 1010.4 |
| 20260506113843 | 26 | 301 | 1.6 | 8.0 | 0.00 | 0.00 | 0.00 | 46 | 1010.5 |
| 20260506113643 | 25 | 107 | 1.6 | 8.0 | 0.00 | 0.00 | 0.00 | 47 | 1010.4 |
| 20260506113529 | 25 | 107 | 1.6 | 8.0 | 0.00 | 0.00 | 0.00 | 46 | 1010.4 |
| 20260506113441 | 25 | 36 | 1.6 | 12.9 | 0.00 | 0.00 | 0.00 | 46 | 1010.4 |
| 20260506113245 | 25 | 7 | 1.6 | 12.9 | 0.00 | 0.00 | 0.00 | 46 | 1010.4 |
| 20260506113043 | 25 | 346 | 1.6 | 12.9 | 0.00 | 0.00 | 0.00 | 46 | 1010.4 |
| 20260506113030 | 25 | 338 | 1.6 | 12.9 | 0.00 | 0.00 | 0.00 | 46 | 1010.4 |
| 20260506112916 | 25 | 351 | 1.6 | 12.9 | 0.00 | 0.00 | 0.00 | 46 | 1010.4 |
| 20260506112821 | 25 | 356 | 1.6 | 12.9 | 0.00 | 0.00 | 0.00 | 46 | 1010.6 |
| 20260506112506 | 25 | 19 | 1.6 | 8.0 | 0.00 | 0.00 | 0.00 | 46 | 1010.5 |
| 20260506112411 | 25 | 189 | 1.6 | 11.3 | 0.00 | 0.00 | 0.00 | 45 | 1010.5 |
| 20260506112033 | 25 | 22 | 1.6 | 11.3 | 0.00 | 0.00 | 0.00 | 45 | 1010.6 |
| 20260506111839 | 25 | 85 | 1.6 | 11.3 | 0.00 | 0.00 | 0.00 | 45 | 1010.6 |
| 20260506111740 | 25 | 15 | 1.6 | 11.3 | 0.00 | 0.00 | 0.00 | 46 | 1010.6 |
| 20260506111710 | 25 | 15 | 1.6 | 11.3 | 0.00 | 0.00 | 0.00 | 45 | 1010.6 |
| 20260506111235 | 25 | 20 | 0.0 | 9.7 | 0.00 | 0.00 | 0.00 | 46 | 1010.6 |
| 20260506111109 | 25 | 110 | 0.0 | 9.7 | 0.00 | 0.00 | 0.00 | 46 | 1010.7 |
| 20260506110958 | 25 | 92 | 0.0 | 9.7 | 0.00 | 0.00 | 0.00 | 46 | 1010.6 |
| 20260506110620 | 25 | 198 | 0.0 | 3.2 | 0.00 | 0.00 | 0.00 | 45 | 1010.6 |
| 20260506110552 | 25 | 203 | 0.0 | 3.2 | 0.00 | 0.00 | 0.00 | 46 | 1010.7 |
| 20260506110503 | 25 | 173 | 0.0 | 9.7 | 0.00 | 0.00 | 0.00 | 46 | 1010.7 |
| 20260506110145 | 25 | 29 | 0.0 | 9.7 | 0.00 | 0.00 | 0.00 | 46 | 1010.8 |
| 20260506110042 | 25 | 20 | 0.0 | 9.7 | 0.00 | 0.00 | 0.00 | 47 | 1010.8 |
| 20260506105946 | 25 | 63 | 0.0 | 9.7 | 0.00 | 0.00 | 0.00 | 46 | 1010.7 |
| 20260506105307 | 25 | 108 | 0.0 | 0.0 | 0.00 | 0.00 | 0.00 | 46 | 1010.7 |
| 20260506105203 | 25 | 92 | 0.0 | 0.0 | 0.00 | 0.00 | 0.00 | 45 | 1010.9 |
| 20260506104630 | 25 | 190 | 0.0 | 6.4 | 0.00 | 0.00 | 0.00 | 45 | 1010.9 |
| 20260506104514 | 25 | 49 | 0.0 | 6.4 | 0.00 | 0.00 | 0.00 | 45 | 1010.9 |
| 20260506104431 | 25 | 49 | 0.0 | 6.4 | 0.00 | 0.00 | 0.00 | 45 | 1010.9 |
| 20260506104332 | 25 | 49 | 0.0 | 6.4 | 0.00 | 0.00 | 0.00 | 45 | 1011.0 |
| 20260506104013 | 25 | 45 | 0.0 | 6.4 | 0.00 | 0.00 | 0.00 | 45 | 1011.0 |
| 20260506103829 | 25 | 86 | 0.0 | 6.4 | 0.00 | 0.00 | 0.00 | 45 | 1010.9 |
| 20260506103727 | 25 | 25 | 0.0 | 3.2 | 0.00 | 0.00 | 0.00 | 45 | 1011.0 |
| 20260506103655 | 25 | 320 | 0.0 | 1.6 | 0.00 | 0.00 | 0.00 | 45 | 1011.0 |
| 20260506103250 | 25 | 35 | 0.0 | 14.5 | 0.00 | 0.00 | 0.00 | 45 | 1011.0 |
| 20260506103142 | 25 | 56 | 0.0 | 14.5 | 0.00 | 0.00 | 0.00 | 45 | 1011.0 |
| 20260506103055 | 25 | 74 | 0.0 | 14.5 | 0.00 | 0.00 | 0.00 | 45 | 1011.0 |
| 20260506102415 | 25 | 54 | 0.0 | 14.5 | 0.00 | 0.00 | 0.00 | 45 | 1011.1 |
| 20260506102253 | 25 | 164 | 0.0 | 1.6 | 0.00 | 0.00 | 0.00 | 46 | 1011.0 |
| 20260506102200 | 25 | 98 | 0.0 | 1.6 | 0.00 | 0.00 | 0.00 | 46 | 1011.0 |
| 20260506102151 | 25 | 88 | 0.0 | 1.6 | 0.00 | 0.00 | 0.00 | 46 | 1011.0 |
| 20260506101619 | 24 | 84 | 0.0 | 0.0 | 0.00 | 0.00 | 0.00 | 46 | 1011.1 |
| 20260506101539 | 24 | 63 | 0.0 | 0.0 | 0.00 | 0.00 | 0.00 | 46 | 1011.1 |
| 20260506101514 | 24 | 142 | 0.0 | 0.0 | 0.00 | 0.00 | 0.00 | 46 | 1011.1 |
| 20260506101423 | 24 | 293 | 0.0 | 0.0 | 0.00 | 0.00 | 0.00 | 46 | 1011.1 |
| 20260506101331 | 24 | 300 | 0.0 | 0.0 | 0.00 | 0.00 | 0.00 | 45 | 1011.1 |
| 20260506100613 | 24 | 34 | 0.0 | 0.0 | 0.00 | 0.00 | 0.00 | 45 | 1011.2 |
| 20260506100541 | 24 | 34 | 0.0 | 0.0 | 0.00 | 0.00 | 0.00 | 45 | 1011.2 |
| 20260506100514 | 24 | 34 | 0.0 | 3.2 | 0.00 | 0.00 | 0.00 | 45 | 1011.2 |
| 20260506100013 | 24 | 32 | 0.0 | 3.2 | 0.00 | 0.00 | 0.00 | 46 | 1011.2 |
| 20260506095910 | 24 | 20 | 0.0 | 3.2 | 0.00 | 0.00 | 0.00 | 46 | 1011.2 |
| 20260506095503 | 24 | 55 | 0.0 | 3.2 | 0.00 | 0.00 | 0.00 | 47 | 1011.2 |
| 20260506095418 | 24 | 103 | 0.0 | 1.6 | 0.00 | 0.00 | 0.00 | 47 | 1011.3 |
| 20260506095324 | 24 | 34 | 0.0 | 6.4 | 0.00 | 0.00 | 0.00 | 47 | 1011.3 |
| 20260506095226 | 23 | 32 | 0.0 | 6.4 | 0.00 | 0.00 | 0.00 | 47 | 1011.2 |
| 20260506094820 | 23 | 91 | 0.0 | 6.4 | 0.00 | 0.00 | 0.00 | 47 | 1011.3 |
| 20260506094721 | 23 | 76 | 0.0 | 6.4 | 0.00 | 0.00 | 0.00 | 48 | 1011.2 |
| 20260506094651 | 23 | 76 | 0.0 | 6.4 | 0.00 | 0.00 | 0.00 | 47 | 1011.3 |
| 20260506094628 | 23 | 76 | 1.6 | 8.0 | 0.00 | 0.00 | 0.00 | 48 | 1011.3 |
| 20260506094533 | 23 | 99 | 1.6 | 8.0 | 0.00 | 0.00 | 0.00 | 48 | 1011.3 |
| 20260506094229 | 23 | 80 | 1.6 | 8.0 | 0.00 | 0.00 | 0.00 | 48 | 1011.3 |
| 20260506093829 | 23 | 155 | 1.6 | 8.0 | 0.00 | 0.00 | 0.00 | 48 | 1011.3 |
| 20260506093753 | 23 | 152 | 1.6 | 8.0 | 0.00 | 0.00 | 0.00 | 47 | 1011.3 |
| 20260506093112 | 23 | 117 | 0.0 | 3.2 | 0.00 | 0.00 | 0.00 | 47 | 1011.4 |
| 20260506092607 | 23 | 49 | 0.0 | 1.6 | 0.00 | 0.00 | 0.00 | 47 | 1011.4 |
| 20260506092501 | 23 | 47 | 0.0 | 1.6 | 0.00 | 0.00 | 0.00 | 47 | 1011.4 |
| 20260506092416 | 23 | 67 | 0.0 | 1.6 | 0.00 | 0.00 | 0.00 | 47 | 1011.4 |
| 20260506092321 | 23 | 68 | 0.0 | 3.2 | 0.00 | 0.00 | 0.00 | 47 | 1011.4 |
| 20260506092221 | 23 | 115 | 0.0 | 3.2 | 0.00 | 0.00 | 0.00 | 47 | 1011.4 |
| 20260506091806 | 23 | 113 | 0.0 | 3.2 | 0.00 | 0.00 | 0.00 | 47 | 1011.4 |
| 20260506091610 | 23 | 138 | 0.0 | 3.2 | 0.00 | 0.00 | 0.00 | 48 | 1011.5 |
| 20260506091534 | 23 | 23 | 0.0 | 3.2 | 0.00 | 0.00 | 0.00 | 48 | 1011.5 |
| 20260506091507 | 23 | 20 | 0.0 | 3.2 | 0.00 | 0.00 | 0.00 | 48 | 1011.5 |
| 20260506091006 | 23 | 91 | 0.0 | 1.6 | 0.00 | 0.00 | 0.00 | 48 | 1011.5 |
| 20260506090808 | 23 | 61 | 0.0 | 0.0 | 0.00 | 0.00 | 0.00 | 48 | 1011.4 |
| 20260506090609 | 23 | 17 | 0.0 | 0.0 | 0.00 | 0.00 | 0.00 | 48 | 1011.4 |
| 20260506090536 | 23 | 1 | 0.0 | 0.0 | 0.00 | 0.00 | 0.00 | 48 | 1011.4 |
| 20260506090508 | 23 | 40 | 0.0 | 0.0 | 0.00 | 0.00 | 0.00 | 48 | 1011.4 |
| 20260506090007 | 22 | 15 | 0.0 | 0.0 | 0.00 | 0.00 | 0.00 | 48 | 1011.4 |
| 20260506085806 | 22 | 15 | 0.0 | 0.0 | 0.00 | 0.00 | 0.00 | 48 | 1011.4 |
| 20260506085606 | 22 | 15 | 0.0 | 0.0 | 0.00 | 0.00 | 0.00 | 49 | 1011.5 |
| 20260506085512 | 22 | 15 | 0.0 | 1.6 | 0.00 | 0.00 | 0.00 | 48 | 1011.4 |
| 20260506085447 | 22 | 9 | 0.0 | 1.6 | 0.00 | 0.00 | 0.00 | 49 | 1011.4 |
| 20260506085358 | 22 | 34 | 0.0 | 1.6 | 0.00 | 0.00 | 0.00 | 49 | 1011.4 |
| 20260506085256 | 22 | 34 | 0.0 | 1.6 | 0.00 | 0.00 | 0.00 | 49 | 1011.4 |
| 20260506084943 | 22 | 35 | 0.0 | 1.6 | 0.00 | 0.00 | 0.00 | 49 | 1011.4 |
| 20260506084503 | 22 | 59 | 0.0 | 1.6 | 0.00 | 0.00 | 0.00 | 49 | 1011.5 |
| 20260506084413 | 22 | 30 | 0.0 | 1.6 | 0.00 | 0.00 | 0.00 | 49 | 1011.4 |
| 20260506084318 | 22 | 35 | 0.0 | 4.8 | 0.00 | 0.00 | 0.00 | 49 | 1011.5 |
| 20260506084221 | 22 | 134 | 0.0 | 6.4 | 0.00 | 0.00 | 0.00 | 50 | 1011.5 |
| 20260506083813 | 22 | 134 | 0.0 | 6.4 | 0.00 | 0.00 | 0.00 | 50 | 1011.5 |
| 20260506083714 | 22 | 94 | 0.0 | 6.4 | 0.00 | 0.00 | 0.00 | 49 | 1011.5 |
| 20260506083643 | 22 | 113 | 0.0 | 6.4 | 0.00 | 0.00 | 0.00 | 50 | 1011.5 |
| 20260506083207 | 22 | 129 | 0.0 | 6.4 | 0.00 | 0.00 | 0.00 | 51 | 1011.4 |
| 20260506083009 | 22 | 109 | 0.0 | 4.8 | 0.00 | 0.00 | 0.00 | 51 | 1011.5 |
| 20260506082906 | 22 | 103 | 0.0 | 4.8 | 0.00 | 0.00 | 0.00 | 51 | 1011.5 |
| 20260506082817 | 21 | 6 | 0.0 | 4.8 | 0.00 | 0.00 | 0.00 | 51 | 1011.5 |
| 20260506082509 | 21 | 67 | 0.0 | 8.0 | 0.00 | 0.00 | 0.00 | 51 | 1011.5 |
| 20260506082005 | 21 | 113 | 0.0 | 8.0 | 0.00 | 0.00 | 0.00 | 52 | 1011.5 |
| 20260506081851 | 21 | 74 | 0.0 | 8.0 | 0.00 | 0.00 | 0.00 | 52 | 1011.4 |
| 20260506081728 | 21 | 76 | 0.0 | 8.0 | 0.00 | 0.00 | 0.00 | 53 | 1011.5 |
| 20260506081654 | 21 | 123 | 0.0 | 8.0 | 0.00 | 0.00 | 0.00 | 53 | 1011.5 |
| 20260506081327 | 21 | 46 | 0.0 | 6.4 | 0.00 | 0.00 | 0.00 | 52 | 1011.5 |
| 20260506081015 | 21 | 45 | 0.0 | 6.4 | 0.00 | 0.00 | 0.00 | 53 | 1011.5 |
| 20260506080912 | 21 | 32 | 0.0 | 6.4 | 0.00 | 0.00 | 0.00 | 52 | 1011.5 |
| 20260506080501 | 21 | 28 | 0.0 | 4.8 | 0.00 | 0.00 | 0.00 | 54 | 1011.4 |
| 20260506080407 | 21 | 38 | 1.6 | 4.8 | 0.00 | 0.00 | 0.00 | 54 | 1011.5 |
| 20260506080207 | 21 | 141 | 1.6 | 11.3 | 0.00 | 0.00 | 0.00 | 54 | 1011.5 |
| 20260506073502 | 20 | 76 | 0.0 | 3.2 | 0.00 | 0.00 | 0.00 | 54 | 1011.5 |
| 20260506073411 | 20 | 65 | 0.0 | 3.2 | 0.00 | 0.00 | 0.00 | 54 | 1011.5 |
| 20260506073317 | 20 | 121 | 1.6 | 9.7 | 0.00 | 0.00 | 0.00 | 56 | 1011.5 |
| 20260506073218 | 20 | 106 | 1.6 | 11.3 | 0.00 | 0.00 | 0.00 | 56 | 1011.5 |
| 20260506072805 | 20 | 80 | 1.6 | 11.3 | 0.00 | 0.00 | 0.00 | 56 | 1011.5 |
| 20260506072608 | 20 | 111 | 1.6 | 11.3 | 0.00 | 0.00 | 0.00 | 56 | 1011.4 |
| 20260506072502 | 20 | 111 | 1.6 | 11.3 | 0.00 | 0.00 | 0.00 | 56 | 1011.5 |
| 20260506072406 | 20 | 111 | 1.6 | 11.3 | 0.00 | 0.00 | 0.00 | 55 | 1011.5 |
| 20260506072206 | 20 | 127 | 0.0 | 11.3 | 0.00 | 0.00 | 0.00 | 54 | 1011.5 |
| 20260506072007 | 20 | 115 | 0.0 | 3.2 | 0.00 | 0.00 | 0.00 | 54 | 1011.5 |
| 20260506071806 | 20 | 102 | 0.0 | 3.2 | 0.00 | 0.00 | 0.00 | 56 | 1011.4 |
| 20260506071607 | 20 | 85 | 0.0 | 3.2 | 0.00 | 0.00 | 0.00 | 56 | 1011.5 |
| 20260506071503 | 20 | 110 | 0.0 | 3.2 | 0.00 | 0.00 | 0.00 | 56 | 1011.5 |
| 20260506071407 | 20 | 93 | 0.0 | 1.6 | 0.00 | 0.00 | 0.00 | 56 | 1011.4 |
| 20260506071208 | 20 | 71 | 0.0 | 1.6 | 0.00 | 0.00 | 0.00 | 56 | 1011.4 |
| 20260506071007 | 20 | 75 | 0.0 | 4.8 | 0.00 | 0.00 | 0.00 | 56 | 1011.4 |
| 20260506070806 | 20 | 75 | 0.0 | 8.0 | 0.00 | 0.00 | 0.00 | 56 | 1011.5 |
| 20260506070607 | 20 | 74 | 0.0 | 8.0 | 0.00 | 0.00 | 0.00 | 56 | 1011.5 |
| 20260506070501 | 20 | 74 | 0.0 | 8.0 | 0.00 | 0.00 | 0.00 | 56 | 1011.5 |
| 20260506070407 | 20 | 81 | 0.0 | 8.0 | 0.00 | 0.00 | 0.00 | 56 | 1011.5 |
| 20260506070227 | 20 | 76 | 0.0 | 8.0 | 0.00 | 0.00 | 0.00 | 56 | 1011.5 |
| 20260506070123 | 20 | 129 | 0.0 | 8.0 | 0.00 | 0.00 | 0.00 | 57 | 1011.6 |
| 20260506062500 | 19 | 163 | 0.0 | 0.0 | 0.00 | 0.00 | 0.00 | 59 | 1011.6 |
| 20260506062407 | 19 | 163 | 0.0 | 0.0 | 0.00 | 0.00 | 0.00 | 59 | 1011.6 |
| 20260506062242 | 19 | 163 | 0.0 | 0.0 | 0.00 | 0.00 | 0.00 | 60 | 1011.6 |
| 20260506062148 | 19 | 163 | 0.0 | 0.0 | 0.00 | 0.00 | 0.00 | 60 | 1011.7 |
| 20260506062138 | 19 | 163 | 0.0 | 0.0 | 0.00 | 0.00 | 0.00 | 60 | 1011.7 |
| 20260506062040 | 19 | 163 | 0.0 | 0.0 | 0.00 | 0.00 | 0.00 | 60 | 1011.7 |
| 20260506061709 | 19 | 163 | 0.0 | 0.0 | 0.00 | 0.00 | 0.00 | 60 | 1011.7 |
| 20260506061207 | 19 | 163 | 0.0 | 0.0 | 0.00 | 0.00 | 0.00 | 61 | 1011.6 |
| 20260506061009 | 18 | 163 | 0.0 | 0.0 | 0.00 | 0.00 | 0.00 | 61 | 1011.7 |
| 20260506060959 | 18 | 163 | 0.0 | 0.0 | 0.00 | 0.00 | 0.00 | 61 | 1011.7 |
| 20260506060807 | 18 | 163 | 0.0 | 0.0 | 0.00 | 0.00 | 0.00 | 61 | 1011.7 |
| 20260506060607 | 18 | 163 | 0.0 | 0.0 | 0.00 | 0.00 | 0.00 | 61 | 1011.7 |
| 20260506060502 | 18 | 163 | 0.0 | 0.0 | 0.00 | 0.00 | 0.00 | 61 | 1011.6 |
| 20260506060407 | 18 | 164 | 0.0 | 0.0 | 0.00 | 0.00 | 0.00 | 61 | 1011.7 |
| 20260506060206 | 18 | 165 | 0.0 | 0.0 | 0.00 | 0.00 | 0.00 | 62 | 1011.7 |
| 20260506051406 | 16 | 155 | 3.2 | 11.3 | 0.00 | 0.00 | 0.00 | 64 | 1011.5 |
| 20260506051206 | 16 | 177 | 3.2 | 11.3 | 0.00 | 0.00 | 0.00 | 65 | 1011.6 |
| 20260506051011 | 16 | 190 | 3.2 | 11.3 | 0.00 | 0.00 | 0.00 | 65 | 1011.5 |
| 20260506050948 | 16 | 190 | 3.2 | 11.3 | 0.00 | 0.00 | 0.00 | 65 | 1011.5 |
| 20260506050819 | 16 | 190 | 3.2 | 11.3 | 0.00 | 0.00 | 0.00 | 65 | 1011.4 |
| 20260506050721 | 15 | 190 | 3.2 | 11.3 | 0.00 | 0.00 | 0.00 | 65 | 1011.4 |
| 20260506050634 | 15 | 210 | 3.2 | 11.3 | 0.00 | 0.00 | 0.00 | 65 | 1011.4 |
| 20260506050207 | 15 | 188 | 4.8 | 14.5 | 0.00 | 0.00 | 0.00 | 66 | 1011.5 |
| 20260506045006 | 15 | 184 | 4.8 | 11.3 | 0.00 | 0.00 | 0.00 | 66 | 1011.4 |
| 20260506044938 | 15 | 243 | 4.8 | 11.3 | 0.00 | 0.00 | 0.00 | 66 | 1011.4 |
| 20260506044808 | 15 | 244 | 6.4 | 11.3 | 0.00 | 0.00 | 0.00 | 66 | 1011.3 |
| 20260506044606 | 15 | 243 | 4.8 | 11.3 | 0.00 | 0.00 | 0.00 | 67 | 1011.4 |
| 20260506044436 | 15 | 215 | 4.8 | 12.9 | 0.00 | 0.00 | 0.00 | 66 | 1011.4 |
| 20260506044406 | 15 | 237 | 4.8 | 12.9 | 0.00 | 0.00 | 0.00 | 66 | 1011.4 |
| 20260506044207 | 15 | 255 | 4.8 | 12.9 | 0.00 | 0.00 | 0.00 | 67 | 1011.4 |
| 20260506044008 | 14 | 223 | 4.8 | 12.9 | 0.00 | 0.00 | 0.00 | 67 | 1011.3 |
| 20260506043936 | 14 | 243 | 4.8 | 12.9 | 0.00 | 0.00 | 0.00 | 67 | 1011.3 |
| 20260506043806 | 14 | 248 | 4.8 | 12.9 | 0.00 | 0.00 | 0.00 | 67 | 1011.4 |
| 20260506043607 | 14 | 228 | 6.4 | 12.9 | 0.00 | 0.00 | 0.00 | 67 | 1011.3 |
| 20260506043435 | 14 | 247 | 6.4 | 12.9 | 0.00 | 0.00 | 0.00 | 67 | 1011.3 |
| 20260506043406 | 14 | 250 | 6.4 | 12.9 | 0.00 | 0.00 | 0.00 | 67 | 1011.3 |
| 20260506043205 | 14 | 246 | 6.4 | 12.9 | 0.00 | 0.00 | 0.00 | 67 | 1011.4 |
| 20260506043009 | 14 | 240 | 6.4 | 12.9 | 0.00 | 0.00 | 0.00 | 67 | 1011.4 |
| 20260506042932 | 14 | 217 | 6.4 | 12.9 | 0.00 | 0.00 | 0.00 | 67 | 1011.4 |
| 20260506042807 | 14 | 220 | 6.4 | 12.9 | 0.00 | 0.00 | 0.00 | 67 | 1011.4 |
| 20260506042606 | 14 | 250 | 6.4 | 12.9 | 0.00 | 0.00 | 0.00 | 67 | 1011.4 |
| 20260506042433 | 14 | 225 | 6.4 | 12.9 | 0.00 | 0.00 | 0.00 | 67 | 1011.3 |
| 20260506042407 | 14 | 234 | 6.4 | 12.9 | 0.00 | 0.00 | 0.00 | 67 | 1011.4 |
| 20260506042206 | 13 | 233 | 4.8 | 12.9 | 0.00 | 0.00 | 0.00 | 67 | 1011.3 |
| 20260506042009 | 13 | 244 | 4.8 | 12.9 | 0.00 | 0.00 | 0.00 | 67 | 1011.3 |
| 20260506041934 | 13 | 240 | 4.8 | 12.9 | 0.00 | 0.00 | 0.00 | 67 | 1011.3 |
| 20260506041807 | 13 | 214 | 4.8 | 11.3 | 0.00 | 0.00 | 0.00 | 67 | 1011.3 |
| 20260506041608 | 13 | 234 | 4.8 | 11.3 | 0.00 | 0.00 | 0.00 | 68 | 1011.4 |
| 20260506041431 | 13 | 178 | 4.8 | 12.9 | 0.00 | 0.00 | 0.00 | 67 | 1011.3 |
| 20260506041409 | 13 | 195 | 6.4 | 14.5 | 0.00 | 0.00 | 0.00 | 67 | 1011.3 |
| 20260506041310 | 13 | 217 | 8.0 | 16.1 | 0.00 | 0.00 | 0.00 | 67 | 1011.3 |
| 20260506040932 | 13 | 223 | 8.0 | 16.1 | 0.00 | 0.00 | 0.00 | 67 | 1011.3 |
| 20260506040807 | 13 | 224 | 9.7 | 16.1 | 0.00 | 0.00 | 0.00 | 67 | 1011.2 |
| 20260506040607 | 13 | 219 | 9.7 | 16.1 | 0.00 | 0.00 | 0.00 | 67 | 1011.2 |
| 20260506040431 | 13 | 229 | 9.7 | 16.1 | 0.00 | 0.00 | 0.00 | 67 | 1011.2 |
| 20260506040407 | 13 | 239 | 9.7 | 16.1 | 0.00 | 0.00 | 0.00 | 67 | 1011.2 |
| 20260506040207 | 13 | 240 | 9.7 | 16.1 | 0.00 | 0.00 | 0.00 | 67 | 1011.2 |
| 20260506040009 | 13 | 235 | 9.7 | 16.1 | 0.00 | 0.00 | 0.00 | 67 | 1011.2 |
| 20260506035930 | 13 | 209 | 9.7 | 16.1 | 0.00 | 0.00 | 0.00 | 67 | 1011.2 |
| 20260506035806 | 13 | 264 | 9.7 | 16.1 | 0.00 | 0.00 | 0.00 | 67 | 1011.2 |
| 20260506035605 | 13 | 251 | 9.7 | 16.1 | 0.00 | 0.00 | 0.00 | 67 | 1011.2 |
| 20260506035432 | 13 | 233 | 9.7 | 16.1 | 0.00 | 0.00 | 0.00 | 67 | 1011.1 |
| 20260506035405 | 13 | 198 | 9.7 | 14.5 | 0.00 | 0.00 | 0.00 | 67 | 1011.1 |
| 20260506035222 | 13 | 205 | 8.0 | 14.5 | 0.00 | 0.00 | 0.00 | 67 | 1011.2 |
| 20260506035125 | 13 | 232 | 9.7 | 16.1 | 0.00 | 0.00 | 0.00 | 67 | 1011.1 |
| 20260506035105 | 13 | 213 | 9.7 | 16.1 | 0.00 | 0.00 | 0.00 | 67 | 1011.1 |
| 20260506034606 | 13 | 226 | 9.7 | 16.1 | 0.00 | 0.00 | 0.00 | 67 | 1011.1 |
| 20260506034503 | 13 | 198 | 9.7 | 16.1 | 0.00 | 0.00 | 0.00 | 67 | 1011.2 |
| 20260506034414 | 13 | 223 | 9.7 | 16.1 | 0.00 | 0.00 | 0.00 | 67 | 1011.1 |
| 20260506034207 | 13 | 220 | 8.0 | 16.1 | 0.00 | 0.00 | 0.00 | 67 | 1011.1 |
| 20260506034009 | 13 | 221 | 6.4 | 14.5 | 0.00 | 0.00 | 0.00 | 68 | 1011.1 |
| 20260506033931 | 13 | 223 | 6.4 | 14.5 | 0.00 | 0.00 | 0.00 | 68 | 1011.1 |
| 20260506033812 | 13 | 249 | 6.4 | 14.5 | 0.00 | 0.00 | 0.00 | 68 | 1011.1 |
| 20260506033718 | 13 | 217 | 6.4 | 14.5 | 0.00 | 0.00 | 0.00 | 68 | 1011.1 |
| 20260506033632 | 13 | 237 | 6.4 | 12.9 | 0.00 | 0.00 | 0.00 | 68 | 1011.1 |
| 20260506033207 | 13 | 211 | 6.4 | 11.3 | 0.00 | 0.00 | 0.00 | 68 | 1011.1 |
| 20260506033007 | 13 | 228 | 6.4 | 11.3 | 0.00 | 0.00 | 0.00 | 68 | 1011.1 |
| 20260506032932 | 13 | 232 | 6.4 | 11.3 | 0.00 | 0.00 | 0.00 | 68 | 1011.1 |
| 20260506032820 | 13 | 262 | 6.4 | 11.3 | 0.00 | 0.00 | 0.00 | 68 | 1011.1 |
| 20260506032726 | 13 | 261 | 6.4 | 11.3 | 0.00 | 0.00 | 0.00 | 68 | 1011.1 |
| 20260506032406 | 13 | 248 | 4.8 | 12.9 | 0.00 | 0.00 | 0.00 | 68 | 1011.1 |
| 20260506032206 | 13 | 216 | 4.8 | 12.9 | 0.00 | 0.00 | 0.00 | 68 | 1011.0 |
| 20260506032008 | 13 | 244 | 4.8 | 12.9 | 0.00 | 0.00 | 0.00 | 68 | 1011.0 |
| 20260506031930 | 13 | 252 | 4.8 | 12.9 | 0.00 | 0.00 | 0.00 | 68 | 1011.0 |
| 20260506031806 | 13 | 252 | 4.8 | 12.9 | 0.00 | 0.00 | 0.00 | 68 | 1011.0 |
| 20260506031647 | 13 | 232 | 3.2 | 12.9 | 0.00 | 0.00 | 0.00 | 68 | 1011.0 |
| 20260506031606 | 13 | 242 | 3.2 | 11.3 | 0.00 | 0.00 | 0.00 | 68 | 1010.9 |
| 20260506031550 | 13 | 218 | 3.2 | 11.3 | 0.00 | 0.00 | 0.00 | 68 | 1011.0 |
| 20260506031455 | 13 | 222 | 3.2 | 11.3 | 0.00 | 0.00 | 0.00 | 68 | 1010.9 |
| 20260506031331 | 13 | 228 | 3.2 | 11.3 | 0.00 | 0.00 | 0.00 | 67 | 1010.9 |
| 20260506030607 | 13 | 231 | 3.2 | 8.0 | 0.00 | 0.00 | 0.00 | 67 | 1010.9 |
| 20260506030430 | 13 | 213 | 3.2 | 8.0 | 0.00 | 0.00 | 0.00 | 67 | 1010.9 |
| 20260506030408 | 13 | 243 | 3.2 | 11.3 | 0.00 | 0.00 | 0.00 | 67 | 1011.0 |
| 20260506030207 | 13 | 265 | 4.8 | 11.3 | 0.00 | 0.00 | 0.00 | 67 | 1010.9 |
| 20260506030008 | 13 | 267 | 4.8 | 11.3 | 0.00 | 0.00 | 0.00 | 67 | 1011.0 |
| 20260506025930 | 13 | 223 | 4.8 | 11.3 | 0.00 | 0.00 | 0.00 | 67 | 1011.0 |
| 20260506025806 | 13 | 264 | 4.8 | 11.3 | 0.00 | 0.00 | 0.00 | 67 | 1011.0 |
| 20260506025606 | 13 | 231 | 4.8 | 11.3 | 0.00 | 0.00 | 0.00 | 67 | 1010.9 |
| 20260506025438 | 13 | 235 | 4.8 | 11.3 | 0.00 | 0.00 | 0.00 | 67 | 1010.9 |
| 20260506025419 | 13 | 241 | 4.8 | 11.3 | 0.00 | 0.00 | 0.00 | 67 | 1010.9 |
| 20260506025324 | 13 | 234 | 4.8 | 11.3 | 0.00 | 0.00 | 0.00 | 67 | 1010.9 |
| 20260506024957 | 13 | 236 | 4.8 | 11.3 | 0.00 | 0.00 | 0.00 | 67 | 1010.8 |
| 20260506024906 | 13 | 231 | 4.8 | 11.3 | 0.00 | 0.00 | 0.00 | 67 | 1010.8 |
| 20260506024525 | 13 | 230 | 4.8 | 11.3 | 0.00 | 0.00 | 0.00 | 67 | 1010.8 |
| 20260506024509 | 13 | 246 | 4.8 | 11.3 | 0.00 | 0.00 | 0.00 | 67 | 1010.9 |
| 20260506024007 | 13 | 261 | 4.8 | 12.9 | 0.00 | 0.00 | 0.00 | 67 | 1010.8 |
| 20260506023933 | 13 | 240 | 4.8 | 12.9 | 0.00 | 0.00 | 0.00 | 67 | 1010.8 |
| 20260506023808 | 13 | 242 | 6.4 | 12.9 | 0.00 | 0.00 | 0.00 | 67 | 1010.8 |
| 20260506023709 | 13 | 255 | 6.4 | 12.9 | 0.00 | 0.00 | 0.00 | 67 | 1010.7 |
| 20260506023625 | 13 | 250 | 6.4 | 12.9 | 0.00 | 0.00 | 0.00 | 67 | 1010.8 |
| 20260506023612 | 13 | 242 | 6.4 | 12.9 | 0.00 | 0.00 | 0.00 | 67 | 1010.8 |
| 20260506022922 | 13 | 219 | 6.4 | 12.9 | 0.00 | 0.00 | 0.00 | 67 | 1010.9 |
| 20260506022806 | 13 | 244 | 6.4 | 12.9 | 0.00 | 0.00 | 0.00 | 67 | 1010.9 |
| 20260506022606 | 13 | 226 | 6.4 | 12.9 | 0.00 | 0.00 | 0.00 | 67 | 1010.9 |
| 20260506022425 | 13 | 259 | 6.4 | 14.5 | 0.00 | 0.00 | 0.00 | 67 | 1010.9 |
| 20260506022411 | 13 | 247 | 6.4 | 14.5 | 0.00 | 0.00 | 0.00 | 67 | 1010.8 |
| 20260506022313 | 13 | 234 | 8.0 | 16.1 | 0.00 | 0.00 | 0.00 | 67 | 1010.9 |
| 20260506021923 | 13 | 204 | 8.0 | 16.1 | 0.00 | 0.00 | 0.00 | 67 | 1010.9 |
| 20260506021809 | 13 | 236 | 6.4 | 16.1 | 0.00 | 0.00 | 0.00 | 68 | 1010.9 |
| 20260506021716 | 13 | 258 | 6.4 | 16.1 | 0.00 | 0.00 | 0.00 | 68 | 1010.9 |
| 20260506021628 | 13 | 228 | 6.4 | 16.1 | 0.00 | 0.00 | 0.00 | 68 | 1010.9 |
| 20260506021206 | 13 | 203 | 6.4 | 12.9 | 0.00 | 0.00 | 0.00 | 68 | 1010.9 |
| 20260506021009 | 13 | 243 | 6.4 | 12.9 | 0.00 | 0.00 | 0.00 | 68 | 1010.9 |
| 20260506020924 | 13 | 242 | 6.4 | 12.9 | 0.00 | 0.00 | 0.00 | 68 | 1010.9 |
| 20260506020809 | 13 | 253 | 6.4 | 12.9 | 0.00 | 0.00 | 0.00 | 68 | 1010.9 |
| 20260506020714 | 13 | 211 | 6.4 | 14.5 | 0.00 | 0.00 | 0.00 | 68 | 1011.0 |
| 20260506020629 | 13 | 242 | 6.4 | 14.5 | 0.00 | 0.00 | 0.00 | 67 | 1010.9 |
| 20260506020208 | 13 | 246 | 6.4 | 14.5 | 0.00 | 0.00 | 0.00 | 67 | 1010.9 |
| 20260506020017 | 13 | 248 | 4.8 | 14.5 | 0.00 | 0.00 | 0.00 | 67 | 1010.9 |
| 20260506015949 | 13 | 280 | 4.8 | 14.5 | 0.00 | 0.00 | 0.00 | 67 | 1010.9 |
| 20260506015908 | 13 | 228 | 4.8 | 14.5 | 0.00 | 0.00 | 0.00 | 67 | 1010.9 |
| 20260506015423 | 14 | 241 | 3.2 | 8.0 | 0.00 | 0.00 | 0.00 | 67 | 1010.9 |
| 20260506015406 | 14 | 241 | 3.2 | 8.0 | 0.00 | 0.00 | 0.00 | 67 | 1010.8 |
| 20260506015207 | 14 | 242 | 3.2 | 8.0 | 0.00 | 0.00 | 0.00 | 66 | 1010.9 |
| 20260506015008 | 14 | 242 | 1.6 | 6.4 | 0.00 | 0.00 | 0.00 | 66 | 1011.0 |
| 20260506014921 | 14 | 242 | 1.6 | 6.4 | 0.00 | 0.00 | 0.00 | 66 | 1011.0 |
| 20260506014807 | 14 | 243 | 1.6 | 6.4 | 0.00 | 0.00 | 0.00 | 66 | 1010.9 |
| 20260506014641 | 14 | 242 | 1.6 | 6.4 | 0.00 | 0.00 | 0.00 | 66 | 1010.9 |
| 20260506014558 | 14 | 242 | 1.6 | 6.4 | 0.00 | 0.00 | 0.00 | 66 | 1011.0 |
| 20260506014545 | 14 | 242 | 1.6 | 6.4 | 0.00 | 0.00 | 0.00 | 66 | 1010.9 |
| 20260506014452 | 14 | 250 | 0.0 | 4.8 | 0.00 | 0.00 | 0.00 | 66 | 1011.0 |
| 20260506014403 | 14 | 260 | 0.0 | 4.8 | 0.00 | 0.00 | 0.00 | 66 | 1011.0 |
| 20260506013718 | 14 | 259 | 0.0 | 6.4 | 0.00 | 0.00 | 0.00 | 66 | 1010.8 |
| 20260506013406 | 14 | 259 | 0.0 | 6.4 | 0.00 | 0.00 | 0.00 | 65 | 1010.8 |
| 20260506013207 | 14 | 260 | 0.0 | 6.4 | 0.00 | 0.00 | 0.00 | 65 | 1010.8 |
| 20260506013008 | 15 | 235 | 0.0 | 6.4 | 0.00 | 0.00 | 0.00 | 65 | 1010.8 |
| 20260506012917 | 15 | 256 | 0.0 | 0.0 | 0.00 | 0.00 | 0.00 | 65 | 1010.8 |
| 20260506012809 | 15 | 256 | 0.0 | 0.0 | 0.00 | 0.00 | 0.00 | 65 | 1010.8 |
| 20260506012713 | 15 | 256 | 0.0 | 0.0 | 0.00 | 0.00 | 0.00 | 65 | 1010.8 |
| 20260506012407 | 15 | 244 | 0.0 | 3.2 | 0.00 | 0.00 | 0.00 | 65 | 1010.8 |
| 20260506012208 | 15 | 242 | 0.0 | 4.8 | 0.00 | 0.00 | 0.00 | 65 | 1010.9 |
| 20260506012012 | 15 | 230 | 1.6 | 6.4 | 0.00 | 0.00 | 0.00 | 65 | 1010.8 |
| 20260506011915 | 15 | 230 | 1.6 | 9.7 | 0.00 | 0.00 | 0.00 | 65 | 1010.8 |
| 20260506011808 | 15 | 265 | 3.2 | 9.7 | 0.00 | 0.00 | 0.00 | 65 | 1010.8 |
| 20260506011606 | 15 | 265 | 3.2 | 9.7 | 0.00 | 0.00 | 0.00 | 65 | 1010.8 |
| 20260506011420 | 15 | 210 | 4.8 | 11.3 | 0.00 | 0.00 | 0.00 | 65 | 1010.8 |
| 20260506011408 | 15 | 209 | 4.8 | 11.3 | 0.00 | 0.00 | 0.00 | 65 | 1010.9 |
| 20260506011208 | 14 | 210 | 4.8 | 11.3 | 0.00 | 0.00 | 0.00 | 65 | 1010.8 |
| 20260506011010 | 14 | 207 | 6.4 | 14.5 | 0.00 | 0.00 | 0.00 | 65 | 1010.8 |
| 20260506010942 | 14 | 210 | 6.4 | 14.5 | 0.00 | 0.00 | 0.00 | 65 | 1010.8 |
| 20260506010807 | 14 | 259 | 6.4 | 14.5 | 0.00 | 0.00 | 0.00 | 66 | 1010.8 |
| 20260506010606 | 14 | 243 | 8.0 | 14.5 | 0.00 | 0.00 | 0.00 | 66 | 1010.8 |
| 20260506010411 | 14 | 221 | 8.0 | 14.5 | 0.00 | 0.00 | 0.00 | 66 | 1010.9 |
| 20260506010310 | 14 | 223 | 8.0 | 14.5 | 0.00 | 0.00 | 0.00 | 66 | 1010.8 |
| 20260506005911 | 14 | 214 | 8.0 | 14.5 | 0.00 | 0.00 | 0.00 | 66 | 1010.7 |
| 20260506005808 | 14 | 228 | 8.0 | 14.5 | 0.00 | 0.00 | 0.00 | 66 | 1010.7 |
| 20260506005606 | 14 | 266 | 8.0 | 14.5 | 0.00 | 0.00 | 0.00 | 66 | 1010.8 |
| 20260506005422 | 14 | 219 | 6.4 | 14.5 | 0.00 | 0.00 | 0.00 | 66 | 1010.8 |
| 20260506005406 | 14 | 227 | 6.4 | 14.5 | 0.00 | 0.00 | 0.00 | 66 | 1010.8 |
| 20260506005209 | 14 | 238 | 6.4 | 12.9 | 0.00 | 0.00 | 0.00 | 66 | 1010.8 |
| 20260506005006 | 14 | 235 | 4.8 | 12.9 | 0.00 | 0.00 | 0.00 | 66 | 1010.8 |
| 20260506004910 | 14 | 251 | 4.8 | 12.9 | 0.00 | 0.00 | 0.00 | 66 | 1010.8 |
| 20260506004805 | 14 | 227 | 4.8 | 12.9 | 0.00 | 0.00 | 0.00 | 66 | 1010.8 |
| 20260506004604 | 14 | 212 | 4.8 | 12.9 | 0.00 | 0.00 | 0.00 | 66 | 1010.8 |
| 20260506004405 | 14 | 238 | 4.8 | 12.9 | 0.00 | 0.00 | 0.00 | 66 | 1010.8 |
| 20260506004304 | 14 | 207 | 4.8 | 12.9 | 0.00 | 0.00 | 0.00 | 66 | 1010.8 |
| 20260506004207 | 14 | 228 | 4.8 | 12.9 | 0.00 | 0.00 | 0.00 | 66 | 1010.8 |
| 20260506003817 | 14 | 217 | 4.8 | 12.9 | 0.00 | 0.00 | 0.00 | 66 | 1010.7 |
| 20260506003719 | 15 | 248 | 3.2 | 11.3 | 0.00 | 0.00 | 0.00 | 66 | 1010.8 |
| 20260506003632 | 15 | 232 | 3.2 | 11.3 | 0.00 | 0.00 | 0.00 | 66 | 1010.8 |
| 20260506003312 | 15 | 265 | 3.2 | 11.3 | 0.00 | 0.00 | 0.00 | 67 | 1010.8 |
| 20260506003215 | 15 | 302 | 1.6 | 11.3 | 0.00 | 0.00 | 0.00 | 67 | 1010.7 |
| 20260506003150 | 15 | 242 | 1.6 | 11.3 | 0.00 | 0.00 | 0.00 | 67 | 1010.7 |
| 20260506002418 | 14 | 221 | 3.2 | 11.3 | 0.00 | 0.00 | 0.00 | 68 | 1010.7 |
| 20260506002402 | 14 | 222 | 3.2 | 11.3 | 0.00 | 0.00 | 0.00 | 68 | 1010.7 |
| 20260506002201 | 14 | 251 | 3.2 | 12.9 | 0.00 | 0.00 | 0.00 | 68 | 1010.7 |
| 20260506002001 | 14 | 206 | 4.8 | 12.9 | 0.00 | 0.00 | 0.00 | 68 | 1010.8 |
| 20260506001913 | 14 | 206 | 4.8 | 12.9 | 0.00 | 0.00 | 0.00 | 67 | 1010.8 |
| 20260506001807 | 14 | 235 | 3.2 | 12.9 | 0.00 | 0.00 | 0.00 | 67 | 1010.8 |
| 20260506001712 | 14 | 241 | 3.2 | 12.9 | 0.00 | 0.00 | 0.00 | 67 | 1010.7 |
| 20260506001626 | 15 | 205 | 3.2 | 12.9 | 0.00 | 0.00 | 0.00 | 67 | 1010.7 |
| 20260506001202 | 15 | 243 | 1.6 | 9.7 | 0.00 | 0.00 | 0.00 | 67 | 1010.7 |
| 20260506001001 | 15 | 270 | 1.6 | 8.0 | 0.00 | 0.00 | 0.00 | 66 | 1010.7 |
| 20260506000924 | 15 | 240 | 1.6 | 8.0 | 0.00 | 0.00 | 0.00 | 66 | 1010.6 |
| 20260506000802 | 15 | 275 | 1.6 | 6.4 | 0.00 | 0.00 | 0.00 | 66 | 1010.7 |
| 20260506000559 | 15 | 277 | 1.6 | 9.7 | 0.00 | 0.00 | 0.00 | 65 | 1010.7 |
| 20260506000416 | 15 | 282 | 3.2 | 14.5 | 0.00 | 0.00 | 0.00 | 65 | 1010.7 |
| 20260506000401 | 15 | 282 | 3.2 | 14.5 | 0.00 | 0.00 | 0.00 | 65 | 1010.7 |
| 20260506000309 | 15 | 282 | 4.8 | 14.5 | 0.00 | 0.00 | 0.00 | 65 | 1010.8 |
| 20260505235910 | 14 | 283 | 6.4 | 14.5 | 0.00 | 0.00 | 0.00 | 65 | 1010.8 |
| 20260505235803 | 14 | 282 | 6.4 | 14.5 | 0.00 | 0.00 | 0.00 | 65 | 1010.8 |
| 20260505235645 | 14 | 176 | 6.4 | 14.5 | 0.00 | 0.00 | 0.00 | 65 | 1010.8 |
| 20260505235556 | 14 | 206 | 6.4 | 12.9 | 0.00 | 0.00 | 0.00 | 65 | 1010.8 |
| 20260505235547 | 14 | 217 | 6.4 | 12.9 | 0.00 | 0.00 | 0.00 | 65 | 1010.8 |
| 20260505235455 | 14 | 259 | 6.4 | 12.9 | 0.00 | 0.00 | 0.00 | 65 | 1010.8 |
| 20260505234820 | 14 | 244 | 4.8 | 12.9 | 0.00 | 0.00 | 0.00 | 66 | 1010.8 |
| 20260505234715 | 15 | 213 | 3.2 | 12.9 | 0.00 | 0.00 | 0.00 | 66 | 1010.7 |
| 20260505234401 | 15 | 215 | 1.6 | 12.9 | 0.00 | 0.00 | 0.00 | 66 | 1010.7 |
| 20260505234201 | 15 | 228 | 0.0 | 12.9 | 0.00 | 0.00 | 0.00 | 66 | 1010.7 |
| 20260505234001 | 14 | 234 | 0.0 | 0.0 | 0.00 | 0.00 | 0.00 | 67 | 1010.6 |
| 20260505233909 | 14 | 234 | 0.0 | 0.0 | 0.00 | 0.00 | 0.00 | 67 | 1010.6 |
| 20260505233759 | 14 | 234 | 0.0 | 11.3 | 0.00 | 0.00 | 0.00 | 67 | 1010.6 |
| 20260505233601 | 14 | 234 | 1.6 | 11.3 | 0.00 | 0.00 | 0.00 | 67 | 1010.6 |
| 20260505233414 | 14 | 234 | 1.6 | 11.3 | 0.00 | 0.00 | 0.00 | 67 | 1010.7 |
| 20260505233359 | 14 | 234 | 1.6 | 11.3 | 0.00 | 0.00 | 0.00 | 67 | 1010.7 |
| 20260505233203 | 14 | 234 | 1.6 | 11.3 | 0.00 | 0.00 | 0.00 | 67 | 1010.7 |
| 20260505233001 | 14 | 236 | 1.6 | 11.3 | 0.00 | 0.00 | 0.00 | 67 | 1010.8 |
| 20260505232907 | 14 | 236 | 1.6 | 11.3 | 0.00 | 0.00 | 0.00 | 67 | 1010.7 |
| 20260505232800 | 14 | 221 | 1.6 | 9.7 | 0.00 | 0.00 | 0.00 | 67 | 1010.8 |
| 20260505232559 | 15 | 236 | 0.0 | 9.7 | 0.00 | 0.00 | 0.00 | 67 | 1010.8 |
| 20260505232415 | 15 | 260 | 0.0 | 0.0 | 0.00 | 0.00 | 0.00 | 66 | 1010.7 |
| 20260505232402 | 15 | 260 | 0.0 | 0.0 | 0.00 | 0.00 | 0.00 | 66 | 1010.7 |
| 20260505232305 | 15 | 259 | 0.0 | 0.0 | 0.00 | 0.00 | 0.00 | 66 | 1010.6 |
| 20260505231907 | 15 | 253 | 0.0 | 0.0 | 0.00 | 0.00 | 0.00 | 66 | 1010.6 |
| 20260505231805 | 15 | 251 | 0.0 | 0.0 | 0.00 | 0.00 | 0.00 | 66 | 1010.6 |
| 20260505231706 | 15 | 253 | 0.0 | 0.0 | 0.00 | 0.00 | 0.00 | 66 | 1010.7 |
| 20260505231356 | 15 | 225 | 0.0 | 0.0 | 0.00 | 0.00 | 0.00 | 66 | 1010.7 |
| 20260505231244 | 15 | 222 | 0.0 | 0.0 | 0.00 | 0.00 | 0.00 | 65 | 1010.7 |
| 20260505231144 | 15 | 242 | 0.0 | 0.0 | 0.00 | 0.00 | 0.00 | 65 | 1010.7 |
| 20260505230822 | 15 | 259 | 0.0 | 0.0 | 0.00 | 0.00 | 0.00 | 65 | 1010.7 |
| 20260505230558 | 15 | 259 | 0.0 | 0.0 | 0.00 | 0.00 | 0.00 | 65 | 1010.7 |
| 20260505230412 | 15 | 259 | 0.0 | 0.0 | 0.00 | 0.00 | 0.00 | 65 | 1010.7 |
| 20260505230357 | 15 | 259 | 0.0 | 0.0 | 0.00 | 0.00 | 0.00 | 65 | 1010.7 |
| 20260505230241 | 15 | 259 | 0.0 | 0.0 | 0.00 | 0.00 | 0.00 | 65 | 1010.8 |
| 20260505230145 | 15 | 254 | 0.0 | 0.0 | 0.00 | 0.00 | 0.00 | 65 | 1010.7 |
| 20260505225757 | 15 | 254 | 0.0 | 0.0 | 0.00 | 0.00 | 0.00 | 65 | 1010.7 |
| 20260505225556 | 15 | 254 | 0.0 | 0.0 | 0.00 | 0.00 | 0.00 | 65 | 1010.7 |
| 20260505225411 | 15 | 254 | 0.0 | 0.0 | 0.00 | 0.00 | 0.00 | 65 | 1010.7 |
| 20260505225356 | 15 | 254 | 0.0 | 0.0 | 0.00 | 0.00 | 0.00 | 65 | 1010.7 |
| 20260505225212 | 15 | 254 | 0.0 | 0.0 | 0.00 | 0.00 | 0.00 | 65 | 1010.8 |
| 20260505225118 | 15 | 254 | 0.0 | 0.0 | 0.00 | 0.00 | 0.00 | 65 | 1010.8 |
| 20260505225050 | 15 | 244 | 0.0 | 0.0 | 0.00 | 0.00 | 0.00 | 65 | 1010.7 |
| 20260505224705 | 15 | 282 | 0.0 | 0.0 | 0.00 | 0.00 | 0.00 | 65 | 1010.8 |
| 20260505224358 | 15 | 269 | 0.0 | 0.0 | 0.00 | 0.00 | 0.00 | 65 | 1010.8 |
| 20260505224156 | 15 | 263 | 0.0 | 0.0 | 0.00 | 0.00 | 0.00 | 66 | 1010.8 |
| 20260505223957 | 16 | 263 | 0.0 | 0.0 | 0.00 | 0.00 | 0.00 | 66 | 1010.8 |
| 20260505223908 | 16 | 263 | 0.0 | 0.0 | 0.00 | 0.00 | 0.00 | 67 | 1010.8 |
| 20260505223816 | 16 | 261 | 0.0 | 0.0 | 0.00 | 0.00 | 0.00 | 68 | 1010.8 |
| 20260505223556 | 16 | 124 | 0.0 | 0.0 | 0.00 | 0.00 | 0.00 | 70 | 1010.8 |
| 20260505223412 | 16 | 124 | 0.0 | 0.0 | 0.00 | 0.00 | 0.00 | 71 | 1010.8 |
| 20260505223358 | 16 | 124 | 0.0 | 0.0 | 0.00 | 0.00 | 0.00 | 71 | 1010.8 |
| 20260505223157 | 16 | 124 | 0.0 | 0.0 | 0.00 | 0.00 | 0.00 | 72 | 1010.8 |
| 20260505223005 | 16 | 124 | 0.0 | 0.0 | 0.00 | 0.00 | 0.00 | 72 | 1010.8 |
| 20260505222935 | 16 | 124 | 0.0 | 0.0 | 0.00 | 0.00 | 0.00 | 72 | 1010.7 |
| 20260505222901 | 16 | 124 | 0.0 | 0.0 | 0.00 | 0.00 | 0.00 | 72 | 1010.7 |
| 20260505222415 | 16 | 134 | 0.0 | 0.0 | 0.00 | 0.00 | 0.00 | 72 | 1010.7 |
| 20260505222357 | 16 | 134 | 0.0 | 0.0 | 0.00 | 0.00 | 0.00 | 72 | 1010.7 |
| 20260505222155 | 16 | 138 | 0.0 | 0.0 | 0.00 | 0.00 | 0.00 | 72 | 1010.6 |
| 20260505221957 | 16 | 132 | 0.0 | 0.0 | 0.00 | 0.00 | 0.00 | 72 | 1010.7 |
| 20260505221908 | 16 | 121 | 0.0 | 0.0 | 0.00 | 0.00 | 0.00 | 72 | 1010.7 |
| 20260505221756 | 16 | 92 | 0.0 | 0.0 | 0.00 | 0.00 | 0.00 | 72 | 1010.7 |
| 20260505221556 | 16 | 98 | 0.0 | 0.0 | 0.00 | 0.00 | 0.00 | 72 | 1010.7 |
| 20260505221504 | 16 | 98 | 0.0 | 0.0 | 0.00 | 0.00 | 0.00 | 72 | 1010.7 |
| 20260505221454 | 16 | 98 | 0.0 | 0.0 | 0.00 | 0.00 | 0.00 | 72 | 1010.7 |
| 20260505220958 | 16 | 70 | 1.6 | 11.3 | 0.00 | 0.00 | 0.00 | 72 | 1010.7 |
| 20260505220906 | 16 | 64 | 3.2 | 12.9 | 0.00 | 0.00 | 0.00 | 71 | 1010.6 |
| 20260505220800 | 16 | 64 | 3.2 | 14.5 | 0.00 | 0.00 | 0.00 | 71 | 1010.7 |
| 20260505220557 | 16 | 56 | 3.2 | 14.5 | 0.00 | 0.00 | 0.00 | 72 | 1010.7 |
| 20260505220410 | 16 | 115 | 3.2 | 14.5 | 0.00 | 0.00 | 0.00 | 71 | 1010.6 |
| 20260505220356 | 16 | 115 | 3.2 | 14.5 | 0.00 | 0.00 | 0.00 | 71 | 1010.6 |
| 20260505220157 | 16 | 126 | 3.2 | 14.5 | 0.00 | 0.00 | 0.00 | 71 | 1010.6 |
| 20260505215959 | 16 | 130 | 1.6 | 14.5 | 0.00 | 0.00 | 0.00 | 71 | 1010.6 |
| 20260505215905 | 16 | 137 | 0.0 | 14.5 | 0.00 | 0.00 | 0.00 | 71 | 1010.6 |
| 20260505215759 | 16 | 135 | 0.0 | 11.3 | 0.00 | 0.00 | 0.00 | 71 | 1010.5 |
| 20260505215552 | 16 | 136 | 0.0 | 0.0 | 0.00 | 0.00 | 0.00 | 70 | 1010.5 |
| 20260505215409 | 17 | 136 | 0.0 | 0.0 | 0.00 | 0.00 | 0.00 | 70 | 1010.5 |
| 20260505215353 | 16 | 136 | 0.0 | 0.0 | 0.00 | 0.00 | 0.00 | 70 | 1010.5 |
| 20260505215153 | 17 | 148 | 0.0 | 0.0 | 0.00 | 0.00 | 0.00 | 70 | 1010.5 |
| 20260505214952 | 17 | 148 | 1.6 | 8.0 | 0.00 | 0.00 | 0.00 | 70 | 1010.5 |
| 20260505214907 | 17 | 159 | 1.6 | 8.0 | 0.00 | 0.00 | 0.00 | 70 | 1010.5 |
| 20260505214751 | 17 | 159 | 3.2 | 12.9 | 0.00 | 0.00 | 0.00 | 69 | 1010.5 |
| 20260505214553 | 17 | 138 | 3.2 | 12.9 | 0.00 | 0.00 | 0.00 | 68 | 1010.5 |
| 20260505214409 | 17 | 138 | 3.2 | 12.9 | 0.00 | 0.00 | 0.00 | 68 | 1010.5 |
| 20260505214353 | 17 | 138 | 3.2 | 12.9 | 0.00 | 0.00 | 0.00 | 68 | 1010.5 |
| 20260505214153 | 17 | 136 | 3.2 | 12.9 | 0.00 | 0.00 | 0.00 | 68 | 1010.5 |
| 20260505213952 | 17 | 128 | 1.6 | 12.9 | 0.00 | 0.00 | 0.00 | 67 | 1010.5 |
| 20260505213904 | 17 | 134 | 0.0 | 12.9 | 0.00 | 0.00 | 0.00 | 66 | 1010.4 |
| 20260505213751 | 17 | 149 | 0.0 | 9.7 | 0.00 | 0.00 | 0.00 | 66 | 1010.4 |
| 20260505213556 | 17 | 190 | 0.0 | 0.0 | 0.00 | 0.00 | 0.00 | 65 | 1010.4 |
| 20260505213503 | 17 | 211 | 0.0 | 0.0 | 0.00 | 0.00 | 0.00 | 64 | 1010.4 |
| 20260505213452 | 17 | 211 | 0.0 | 0.0 | 0.00 | 0.00 | 0.00 | 64 | 1010.4 |
| 20260505212952 | 17 | 211 | 0.0 | 0.0 | 0.00 | 0.00 | 0.00 | 61 | 1010.4 |
| 20260505212907 | 17 | 211 | 0.0 | 0.0 | 0.00 | 0.00 | 0.00 | 62 | 1010.4 |
| 20260505212751 | 17 | 211 | 0.0 | 0.0 | 0.00 | 0.00 | 0.00 | 61 | 1010.3 |
| 20260505212553 | 17 | 211 | 0.0 | 0.0 | 0.00 | 0.00 | 0.00 | 60 | 1010.2 |
| 20260505212411 | 17 | 216 | 0.0 | 0.0 | 0.00 | 0.00 | 0.00 | 60 | 1010.2 |
| 20260505212354 | 17 | 220 | 0.0 | 0.0 | 0.00 | 0.00 | 0.00 | 60 | 1010.2 |
| 20260505212202 | 17 | 220 | 0.0 | 4.8 | 0.00 | 0.00 | 0.00 | 60 | 1010.2 |
| 20260505212104 | 17 | 220 | 3.2 | 20.9 | 0.00 | 0.00 | 0.00 | 61 | 1010.2 |
| 20260505212032 | 17 | 220 | 3.2 | 20.9 | 0.00 | 0.00 | 0.00 | 61 | 1010.1 |
| 20260505212000 | 17 | 228 | 4.8 | 20.9 | 0.00 | 0.00 | 0.00 | 61 | 1010.2 |
| 20260505211349 | 17 | 290 | 8.0 | 20.9 | 0.00 | 0.00 | 0.00 | 62 | 1010.0 |
| 20260505211148 | 17 | 287 | 9.7 | 20.9 | 0.00 | 0.00 | 0.00 | 64 | 1010.0 |
| 20260505210945 | 17 | 236 | 9.7 | 19.3 | 0.00 | 0.00 | 0.00 | 64 | 1010.0 |
| 20260505210904 | 17 | 326 | 9.7 | 19.3 | 0.00 | 0.00 | 0.00 | 64 | 1010.0 |
| 20260505210757 | 17 | 278 | 9.7 | 19.3 | 0.00 | 0.00 | 0.00 | 64 | 1010.0 |
| 20260505210627 | 17 | 322 | 9.7 | 19.3 | 0.00 | 0.00 | 0.00 | 64 | 1010.0 |
| 20260505210537 | 17 | 343 | 9.7 | 17.7 | 0.00 | 0.00 | 0.00 | 64 | 1010.0 |
| 20260505210525 | 17 | 307 | 9.7 | 17.7 | 0.00 | 0.00 | 0.00 | 64 | 1010.0 |
| 20260505210431 | 18 | 316 | 9.7 | 19.3 | 0.00 | 0.00 | 0.00 | 65 | 1010.0 |
| 20260505210332 | 18 | 327 | 9.7 | 19.3 | 0.00 | 0.00 | 0.00 | 64 | 1009.8 |
| 20260505205702 | 18 | 308 | 8.0 | 19.3 | 0.00 | 0.00 | 0.00 | 64 | 1009.8 |
| 20260505205614 | 18 | 328 | 8.0 | 19.3 | 0.00 | 0.00 | 0.00 | 64 | 1009.8 |
| 20260505205146 | 18 | 296 | 6.4 | 19.3 | 0.00 | 0.00 | 0.00 | 64 | 1009.8 |
| 20260505204945 | 18 | 332 | 4.8 | 19.3 | 0.00 | 0.00 | 0.00 | 64 | 1009.8 |
| 20260505204907 | 18 | 324 | 3.2 | 19.3 | 0.00 | 0.00 | 0.00 | 64 | 1009.8 |
| 20260505204802 | 18 | 317 | 3.2 | 16.1 | 0.00 | 0.00 | 0.00 | 64 | 1009.8 |
| 20260505204701 | 18 | 347 | 3.2 | 16.1 | 0.00 | 0.00 | 0.00 | 63 | 1009.7 |
| 20260505204344 | 18 | 305 | 3.2 | 12.9 | 0.00 | 0.00 | 0.00 | 62 | 1009.8 |
| 20260505204141 | 18 | 7 | 3.2 | 12.9 | 0.00 | 0.00 | 0.00 | 60 | 1009.8 |
| 20260505203942 | 18 | 319 | 3.2 | 12.9 | 0.00 | 0.00 | 0.00 | 59 | 1009.7 |
| 20260505203907 | 18 | 313 | 3.2 | 12.9 | 0.00 | 0.00 | 0.00 | 60 | 1009.8 |
| 20260505203815 | 18 | 290 | 3.2 | 12.9 | 0.00 | 0.00 | 0.00 | 60 | 1009.7 |
| 20260505203725 | 18 | 296 | 3.2 | 12.9 | 0.00 | 0.00 | 0.00 | 60 | 1009.6 |
| 20260505203639 | 18 | 334 | 4.8 | 14.5 | 0.00 | 0.00 | 0.00 | 60 | 1009.6 |
| 20260505203142 | 18 | 311 | 4.8 | 14.5 | 0.00 | 0.00 | 0.00 | 60 | 1009.6 |
| 20260505202952 | 18 | 327 | 6.4 | 19.3 | 0.00 | 0.00 | 0.00 | 59 | 1009.6 |
| 20260505202923 | 18 | 292 | 6.4 | 19.3 | 0.00 | 0.00 | 0.00 | 59 | 1009.6 |
| 20260505202843 | 18 | 286 | 6.4 | 19.3 | 0.00 | 0.00 | 0.00 | 60 | 1009.6 |
| 20260505202405 | 18 | 309 | 8.0 | 19.3 | 0.00 | 0.00 | 0.00 | 59 | 1009.6 |
| 20260505202339 | 18 | 333 | 8.0 | 19.3 | 0.00 | 0.00 | 0.00 | 58 | 1009.6 |
| 20260505202203 | 18 | 309 | 6.4 | 19.3 | 0.00 | 0.00 | 0.00 | 57 | 1009.5 |
| 20260505202104 | 18 | 322 | 6.4 | 17.7 | 0.00 | 0.00 | 0.00 | 53 | 1009.5 |
| 20260505202039 | 19 | 345 | 6.4 | 17.7 | 0.00 | 0.00 | 0.00 | 53 | 1009.6 |
| 20260505201602 | 19 | 311 | 3.2 | 17.7 | 0.00 | 0.00 | 0.00 | 52 | 1009.6 |
| 20260505201513 | 19 | 346 | 3.2 | 17.7 | 0.00 | 0.00 | 0.00 | 48 | 1009.6 |
| 20260505201457 | 19 | 332 | 3.2 | 16.1 | 0.00 | 0.00 | 0.00 | 47 | 1009.6 |
| 20260505201056 | 20 | 315 | 1.6 | 9.7 | 0.00 | 0.00 | 0.00 | 46 | 1009.5 |
| 20260505201034 | 20 | 325 | 1.6 | 9.7 | 0.00 | 0.00 | 0.00 | 46 | 1009.5 |
| 20260505200633 | 20 | 312 | 1.6 | 8.0 | 0.00 | 0.00 | 0.00 | 44 | 1009.4 |
| 20260505200548 | 20 | 305 | 1.6 | 8.0 | 0.00 | 0.00 | 0.00 | 44 | 1009.4 |
| 20260505200532 | 20 | 315 | 1.6 | 6.4 | 0.00 | 0.00 | 0.00 | 44 | 1009.4 |
| 20260505200437 | 20 | 308 | 1.6 | 6.4 | 0.00 | 0.00 | 0.00 | 43 | 1009.3 |
| 20260505200049 | 20 | 337 | 1.6 | 6.4 | 0.00 | 0.00 | 0.00 | 43 | 1009.3 |
| 20260505195535 | 21 | 340 | 3.2 | 17.7 | 0.00 | 0.00 | 0.00 | 41 | 1009.3 |
| 20260505195446 | 21 | 336 | 3.2 | 17.7 | 0.00 | 0.00 | 0.00 | 41 | 1009.3 |
| 20260505195428 | 21 | 1 | 3.2 | 17.7 | 0.00 | 0.00 | 0.00 | 41 | 1009.3 |
| 20260505194936 | 21 | 308 | 3.2 | 17.7 | 0.00 | 0.00 | 0.00 | 40 | 1009.3 |
| 20260505194910 | 21 | 308 | 3.2 | 17.7 | 0.00 | 0.00 | 0.00 | 40 | 1009.2 |
| 20260505194728 | 21 | 333 | 3.2 | 17.7 | 0.00 | 0.00 | 0.00 | 41 | 1009.3 |
| 20260505194528 | 21 | 284 | 1.6 | 12.9 | 0.00 | 0.00 | 0.00 | 40 | 1009.3 |
| 20260505194406 | 21 | 298 | 1.6 | 12.9 | 0.00 | 0.00 | 0.00 | 39 | 1009.2 |
| 20260505194328 | 21 | 298 | 1.6 | 12.9 | 0.00 | 0.00 | 0.00 | 39 | 1009.2 |
| 20260505194128 | 21 | 298 | 1.6 | 12.9 | 0.00 | 0.00 | 0.00 | 39 | 1009.0 |
| 20260505193924 | 21 | 311 | 1.6 | 12.9 | 0.00 | 0.00 | 0.00 | 39 | 1009.0 |
| 20260505193906 | 21 | 307 | 1.6 | 12.9 | 0.00 | 0.00 | 0.00 | 39 | 1008.9 |
| 20260505193718 | 21 | 339 | 1.6 | 12.9 | 0.00 | 0.00 | 0.00 | 39 | 1009.0 |
| 20260505193520 | 21 | 309 | 0.0 | 6.4 | 0.00 | 0.00 | 0.00 | 38 | 1008.9 |
| 20260505193403 | 21 | 253 | 1.6 | 6.4 | 0.00 | 0.00 | 0.00 | 37 | 1008.8 |
| 20260505193320 | 21 | 253 | 1.6 | 8.0 | 0.00 | 0.00 | 0.00 | 38 | 1008.8 |
| 20260505193128 | 21 | 253 | 1.6 | 9.7 | 0.00 | 0.00 | 0.00 | 37 | 1008.7 |
| 20260505192953 | 21 | 253 | 3.2 | 9.7 | 0.00 | 0.00 | 0.00 | 36 | 1008.7 |
| 20260505192940 | 21 | 253 | 3.2 | 9.7 | 0.00 | 0.00 | 0.00 | 37 | 1008.7 |
| 20260505192848 | 21 | 253 | 3.2 | 9.7 | 0.00 | 0.00 | 0.00 | 37 | 1008.7 |
| 20260505192757 | 21 | 255 | 4.8 | 12.9 | 0.00 | 0.00 | 0.00 | 37 | 1008.8 |
| 20260505192451 | 21 | 209 | 6.4 | 14.5 | 0.00 | 0.00 | 0.00 | 37 | 1008.7 |
| 20260505192050 | 21 | 271 | 6.4 | 14.5 | 0.00 | 0.00 | 0.00 | 36 | 1008.7 |
| 20260505192043 | 21 | 269 | 6.4 | 14.5 | 0.00 | 0.00 | 0.00 | 36 | 1008.7 |
| 20260505191945 | 21 | 234 | 6.4 | 14.5 | 0.00 | 0.00 | 0.00 | 36 | 1008.6 |
| 20260505191611 | 21 | 175 | 6.4 | 14.5 | 0.00 | 0.00 | 0.00 | 36 | 1008.6 |
| 20260505191238 | 21 | 230 | 6.4 | 12.9 | 0.00 | 0.00 | 0.00 | 36 | 1008.6 |
| 20260505190918 | 21 | 196 | 6.4 | 16.1 | 0.00 | 0.00 | 0.00 | 36 | 1008.6 |
| 20260505190821 | 22 | 246 | 8.0 | 16.1 | 0.00 | 0.00 | 0.00 | 37 | 1008.5 |
| 20260505190437 | 22 | 230 | 8.0 | 16.1 | 0.00 | 0.00 | 0.00 | 36 | 1008.5 |
| 20260505190409 | 22 | 244 | 8.0 | 16.1 | 0.00 | 0.00 | 0.00 | 36 | 1008.6 |
| 20260505185911 | 22 | 222 | 8.0 | 19.3 | 0.00 | 0.00 | 0.00 | 36 | 1008.5 |
| 20260505185906 | 22 | 193 | 8.0 | 19.3 | 0.00 | 0.00 | 0.00 | 36 | 1008.5 |
| 20260505185743 | 22 | 152 | 8.0 | 19.3 | 0.00 | 0.00 | 0.00 | 36 | 1008.5 |
| 20260505185643 | 22 | 213 | 8.0 | 19.3 | 0.00 | 0.00 | 0.00 | 36 | 1008.5 |
| 20260505185308 | 22 | 179 | 8.0 | 19.3 | 0.00 | 0.00 | 0.00 | 36 | 1008.4 |
| 20260505185106 | 22 | 228 | 8.0 | 16.1 | 0.00 | 0.00 | 0.00 | 36 | 1008.5 |
| 20260505184920 | 22 | 221 | 8.0 | 16.1 | 0.00 | 0.00 | 0.00 | 36 | 1008.4 |
| 20260505184819 | 22 | 197 | 9.7 | 16.1 | 0.00 | 0.00 | 0.00 | 36 | 1008.4 |
| 20260505184729 | 22 | 199 | 9.7 | 16.1 | 0.00 | 0.00 | 0.00 | 36 | 1008.3 |
| 20260505184656 | 22 | 184 | 8.0 | 16.1 | 0.00 | 0.00 | 0.00 | 36 | 1008.4 |
| 20260505184324 | 22 | 229 | 6.4 | 16.1 | 0.00 | 0.00 | 0.00 | 36 | 1008.4 |
| 20260505184016 | 22 | 233 | 4.8 | 16.1 | 0.00 | 0.00 | 0.00 | 36 | 1008.3 |
| 20260505183506 | 22 | 244 | 3.2 | 14.5 | 0.00 | 0.00 | 0.00 | 36 | 1008.3 |
| 20260505183403 | 22 | 246 | 4.8 | 14.5 | 0.00 | 0.00 | 0.00 | 36 | 1008.3 |
| 20260505183328 | 22 | 271 | 4.8 | 20.9 | 0.00 | 0.00 | 0.00 | 36 | 1008.3 |
| 20260505183237 | 22 | 266 | 6.4 | 20.9 | 0.00 | 0.00 | 0.00 | 36 | 1008.3 |
| 20260505182927 | 22 | 201 | 8.0 | 20.9 | 0.00 | 0.00 | 0.00 | 35 | 1008.2 |
| 20260505182708 | 22 | 191 | 9.7 | 20.9 | 0.00 | 0.00 | 0.00 | 36 | 1008.1 |
| 20260505182505 | 22 | 183 | 11.3 | 20.9 | 0.00 | 0.00 | 0.00 | 35 | 1008.1 |
| 20260505182403 | 22 | 175 | 11.3 | 20.9 | 0.00 | 0.00 | 0.00 | 35 | 1008.2 |
| 20260505182306 | 22 | 192 | 11.3 | 19.3 | 0.00 | 0.00 | 0.00 | 35 | 1008.1 |
| 20260505182104 | 22 | 201 | 12.9 | 20.9 | 0.00 | 0.00 | 0.00 | 35 | 1008.1 |
| 20260505181920 | 22 | 182 | 12.9 | 20.9 | 0.00 | 0.00 | 0.00 | 35 | 1008.1 |
| 20260505181908 | 22 | 182 | 12.9 | 20.9 | 0.00 | 0.00 | 0.00 | 35 | 1008.1 |
| 20260505181718 | 22 | 225 | 14.5 | 24.1 | 0.00 | 0.00 | 0.00 | 36 | 1008.0 |
| 20260505181620 | 22 | 195 | 14.5 | 24.1 | 0.00 | 0.00 | 0.00 | 36 | 1008.1 |
| 20260505181549 | 22 | 198 | 14.5 | 24.1 | 0.00 | 0.00 | 0.00 | 36 | 1007.9 |
| 20260505181104 | 22 | 194 | 14.5 | 24.1 | 0.00 | 0.00 | 0.00 | 36 | 1007.9 |
| 20260505180907 | 22 | 188 | 12.9 | 24.1 | 0.00 | 0.00 | 0.00 | 36 | 1007.9 |
| 20260505180704 | 22 | 214 | 12.9 | 24.1 | 0.00 | 0.00 | 0.00 | 37 | 1007.8 |
| 20260505180504 | 22 | 221 | 11.3 | 24.1 | 0.00 | 0.00 | 0.00 | 37 | 1007.8 |
| 20260505180401 | 22 | 154 | 11.3 | 24.1 | 0.00 | 0.00 | 0.00 | 37 | 1007.8 |
| 20260505180305 | 22 | 167 | 11.3 | 24.1 | 0.00 | 0.00 | 0.00 | 37 | 1007.7 |
| 20260505175921 | 22 | 197 | 11.3 | 24.1 | 0.00 | 0.00 | 0.00 | 38 | 1007.8 |
| 20260505175739 | 22 | 242 | 11.3 | 22.5 | 0.00 | 0.00 | 0.00 | 38 | 1007.7 |
| 20260505175644 | 22 | 174 | 12.9 | 22.5 | 0.00 | 0.00 | 0.00 | 38 | 1007.8 |
| 20260505175305 | 22 | 212 | 12.9 | 19.3 | 0.00 | 0.00 | 0.00 | 39 | 1007.7 |
| 20260505175101 | 22 | 180 | 12.9 | 20.9 | 0.00 | 0.00 | 0.00 | 39 | 1007.8 |
| 20260505174908 | 22 | 213 | 12.9 | 20.9 | 0.00 | 0.00 | 0.00 | 39 | 1007.8 |
| 20260505174607 | 22 | 222 | 12.9 | 24.1 | 0.00 | 0.00 | 0.00 | 39 | 1007.8 |
| 20260505174544 | 22 | 181 | 12.9 | 24.1 | 0.00 | 0.00 | 0.00 | 39 | 1007.8 |
| 20260505174407 | 22 | 196 | 12.9 | 24.1 | 0.00 | 0.00 | 0.00 | 39 | 1007.7 |
| 20260505174207 | 22 | 178 | 12.9 | 24.1 | 0.00 | 0.00 | 0.00 | 39 | 1007.7 |
| 20260505174044 | 22 | 217 | 12.9 | 24.1 | 0.00 | 0.00 | 0.00 | 38 | 1007.8 |
| 20260505174014 | 22 | 194 | 12.9 | 24.1 | 0.00 | 0.00 | 0.00 | 38 | 1007.8 |
| 20260505173917 | 22 | 205 | 12.9 | 19.3 | 0.00 | 0.00 | 0.00 | 38 | 1007.8 |
| 20260505173545 | 22 | 176 | 12.9 | 19.3 | 0.00 | 0.00 | 0.00 | 38 | 1007.8 |
| 20260505173406 | 22 | 201 | 12.9 | 19.3 | 0.00 | 0.00 | 0.00 | 38 | 1008.0 |
| 20260505173204 | 22 | 207 | 11.3 | 19.3 | 0.00 | 0.00 | 0.00 | 37 | 1007.9 |
| 20260505173044 | 22 | 195 | 11.3 | 19.3 | 0.00 | 0.00 | 0.00 | 37 | 1007.9 |
| 20260505173007 | 22 | 194 | 11.3 | 19.3 | 0.00 | 0.00 | 0.00 | 37 | 1007.9 |
| 20260505172805 | 22 | 193 | 8.0 | 17.7 | 0.00 | 0.00 | 0.00 | 37 | 1008.0 |
| 20260505172605 | 22 | 146 | 6.4 | 17.7 | 0.00 | 0.00 | 0.00 | 37 | 1008.0 |
| 20260505172546 | 22 | 170 | 6.4 | 17.7 | 0.00 | 0.00 | 0.00 | 37 | 1008.0 |
| 20260505172415 | 23 | 209 | 6.4 | 17.7 | 0.00 | 0.00 | 0.00 | 38 | 1007.9 |
| 20260505172314 | 23 | 186 | 6.4 | 14.5 | 0.00 | 0.00 | 0.00 | 39 | 1008.0 |
| 20260505172239 | 23 | 235 | 4.8 | 14.5 | 0.00 | 0.00 | 0.00 | 38 | 1008.0 |
| 20260505171801 | 23 | 243 | 4.8 | 9.7 | 0.00 | 0.00 | 0.00 | 38 | 1007.8 |
| 20260505171544 | 23 | 252 | 3.2 | 9.7 | 0.00 | 0.00 | 0.00 | 38 | 1008.0 |
| 20260505171400 | 23 | 238 | 3.2 | 9.7 | 0.00 | 0.00 | 0.00 | 38 | 1007.8 |
| 20260505171202 | 23 | 209 | 1.6 | 11.3 | 0.00 | 0.00 | 0.00 | 38 | 1007.9 |
| 20260505171046 | 23 | 219 | 3.2 | 11.3 | 0.00 | 0.00 | 0.00 | 37 | 1007.8 |
| 20260505171000 | 23 | 201 | 3.2 | 11.3 | 0.00 | 0.00 | 0.00 | 38 | 1007.8 |
| 20260505170800 | 23 | 201 | 3.2 | 14.5 | 0.00 | 0.00 | 0.00 | 37 | 1007.8 |
| 20260505170605 | 23 | 220 | 4.8 | 14.5 | 0.00 | 0.00 | 0.00 | 37 | 1007.8 |
| 20260505170551 | 23 | 207 | 4.8 | 14.5 | 0.00 | 0.00 | 0.00 | 37 | 1007.8 |
| 20260505170508 | 23 | 250 | 4.8 | 14.5 | 0.00 | 0.00 | 0.00 | 37 | 1007.9 |
| 20260505170045 | 24 | 236 | 4.8 | 14.5 | 0.00 | 0.00 | 0.00 | 38 | 1007.9 |
| 20260505170001 | 24 | 215 | 4.8 | 14.5 | 0.00 | 0.00 | 0.00 | 37 | 1007.9 |
| 20260505165800 | 24 | 240 | 3.2 | 14.5 | 0.00 | 0.00 | 0.00 | 38 | 1007.9 |
| 20260505165544 | 24 | 238 | 3.2 | 14.5 | 0.00 | 0.00 | 0.00 | 38 | 1007.8 |
| 20260505165414 | 24 | 196 | 1.6 | 9.7 | 0.00 | 0.00 | 0.00 | 38 | 1007.8 |
| 20260505165315 | 25 | 242 | 3.2 | 9.7 | 0.00 | 0.00 | 0.00 | 38 | 1007.8 |
| 20260505165236 | 25 | 254 | 3.2 | 9.7 | 0.00 | 0.00 | 0.00 | 38 | 1007.9 |
| 20260505165215 | 25 | 257 | 4.8 | 9.7 | 0.00 | 0.00 | 0.00 | 38 | 1007.8 |
| 20260505165126 | 25 | 197 | 6.4 | 11.3 | 0.00 | 0.00 | 0.00 | 37 | 1007.8 |
| 20260505164505 | 25 | 180 | 6.4 | 12.9 | 0.00 | 0.00 | 0.00 | 35 | 1007.8 |
| 20260505164043 | 25 | 167 | 4.8 | 12.9 | 0.00 | 0.00 | 0.00 | 35 | 1007.8 |
| 20260505163958 | 25 | 185 | 3.2 | 12.9 | 0.00 | 0.00 | 0.00 | 35 | 1007.9 |
| 20260505163809 | 25 | 209 | 1.6 | 12.9 | 0.00 | 0.00 | 0.00 | 35 | 1007.9 |
| 20260505163703 | 25 | 203 | 1.6 | 8.0 | 0.00 | 0.00 | 0.00 | 35 | 1008.0 |
| 20260505163651 | 26 | 204 | 1.6 | 8.0 | 0.00 | 0.00 | 0.00 | 35 | 1008.0 |
| 20260505163200 | 26 | 186 | 0.0 | 4.8 | 0.00 | 0.00 | 0.00 | 34 | 1007.9 |
| 20260505163054 | 26 | 186 | 0.0 | 0.0 | 0.00 | 0.00 | 0.00 | 34 | 1007.8 |
| 20260505163022 | 26 | 186 | 0.0 | 0.0 | 0.00 | 0.00 | 0.00 | 35 | 1008.0 |
| 20260505162934 | 26 | 122 | 0.0 | 6.4 | 0.00 | 0.00 | 0.00 | 35 | 1007.9 |
| 20260505162802 | 26 | 115 | 0.0 | 6.4 | 0.00 | 0.00 | 0.00 | 35 | 1008.0 |
| 20260505162456 | 26 | 115 | 0.0 | 6.4 | 0.00 | 0.00 | 0.00 | 35 | 1007.8 |
| 20260505162041 | 26 | 134 | 0.0 | 11.3 | 0.00 | 0.00 | 0.00 | 35 | 1007.8 |
| 20260505161957 | 26 | 134 | 1.6 | 11.3 | 0.00 | 0.00 | 0.00 | 35 | 1007.9 |
| 20260505161904 | 26 | 122 | 3.2 | 12.9 | 0.00 | 0.00 | 0.00 | 35 | 1008.0 |
| 20260505161542 | 26 | 117 | 3.2 | 16.1 | 0.00 | 0.00 | 0.00 | 35 | 1008.0 |
| 20260505161355 | 26 | 119 | 3.2 | 16.1 | 0.00 | 0.00 | 0.00 | 35 | 1008.1 |
| 20260505161156 | 26 | 107 | 3.2 | 16.1 | 0.00 | 0.00 | 0.00 | 34 | 1008.1 |
| 20260505161041 | 26 | 115 | 4.8 | 16.1 | 0.00 | 0.00 | 0.00 | 34 | 1008.0 |
| 20260505160955 | 26 | 129 | 4.8 | 16.1 | 0.00 | 0.00 | 0.00 | 34 | 1008.2 |
| 20260505160753 | 26 | 115 | 3.2 | 16.1 | 0.00 | 0.00 | 0.00 | 34 | 1008.1 |
| 20260505160542 | 26 | 148 | 4.8 | 16.1 | 0.00 | 0.00 | 0.00 | 33 | 1008.1 |
| 20260505160429 | 26 | 118 | 4.8 | 16.1 | 0.00 | 0.00 | 0.00 | 33 | 1008.0 |
| 20260505160329 | 26 | 118 | 6.4 | 16.1 | 0.00 | 0.00 | 0.00 | 33 | 1008.1 |
| 20260505160250 | 26 | 119 | 4.8 | 16.1 | 0.00 | 0.00 | 0.00 | 32 | 1008.1 |
| 20260505160227 | 26 | 127 | 4.8 | 16.1 | 0.00 | 0.00 | 0.00 | 32 | 1008.0 |
| 20260505160137 | 27 | 88 | 4.8 | 16.1 | 0.00 | 0.00 | 0.00 | 31 | 1008.2 |
| 20260505153101 | 27 | 144 | 3.2 | 12.9 | 0.00 | 0.00 | 0.00 | 28 | 1008.2 |
| 20260505153008 | 27 | 94 | 3.2 | 12.9 | 0.00 | 0.00 | 0.00 | 28 | 1008.2 |
| 20260505152910 | 27 | 78 | 3.2 | 12.9 | 0.00 | 0.00 | 0.00 | 27 | 1008.2 |
| 20260505152155 | 27 | 120 | 4.8 | 14.5 | 0.00 | 0.00 | 0.00 | 27 | 1008.4 |
| 20260505152037 | 27 | 152 | 3.2 | 14.5 | 0.00 | 0.00 | 0.00 | 27 | 1008.3 |
| 20260505151953 | 27 | 117 | 3.2 | 14.5 | 0.00 | 0.00 | 0.00 | 27 | 1008.3 |
| 20260505151844 | 27 | 156 | 3.2 | 14.5 | 0.00 | 0.00 | 0.00 | 27 | 1008.3 |
| 20260505151745 | 28 | 325 | 3.2 | 14.5 | 0.00 | 0.00 | 0.00 | 27 | 1008.3 |
| 20260505151733 | 28 | 66 | 3.2 | 14.5 | 0.00 | 0.00 | 0.00 | 27 | 1008.3 |
| 20260505151334 | 28 | 97 | 1.6 | 12.9 | 0.00 | 0.00 | 0.00 | 26 | 1008.4 |
| 20260505151017 | 28 | 119 | 1.6 | 11.3 | 0.00 | 0.00 | 0.00 | 26 | 1008.4 |
| 20260505150908 | 28 | 140 | 1.6 | 11.3 | 0.00 | 0.00 | 0.00 | 26 | 1008.3 |
| 20260505150543 | 28 | 351 | 0.0 | 11.3 | 0.00 | 0.00 | 0.00 | 26 | 1008.3 |
| 20260505150455 | 28 | 122 | 0.0 | 6.4 | 0.00 | 0.00 | 0.00 | 26 | 1008.3 |
| 20260505140537 | 28 | 92 | 0.0 | 4.8 | 0.00 | 0.00 | 0.00 | 24 | 1008.7 |
| 20260505140353 | 29 | 111 | 0.0 | 4.8 | 0.00 | 0.00 | 0.00 | 24 | 1008.7 |
| 20260505140259 | 29 | 111 | 0.0 | 4.8 | 0.00 | 0.00 | 0.00 | 24 | 1008.7 |
| 20260505140228 | 29 | 111 | 0.0 | 4.8 | 0.00 | 0.00 | 0.00 | 24 | 1008.8 |